Portada
METAR-TAF:

METAR-TAF

Aeropuertos :

Castellón de la Plana, España

Aeropuerto de Castellón-Costa Azahar

latitud: 40-12-35N, longitud: 0-04-11E, altitud: 360 m

Observación

El informe se hizo hace 23 minutos, a las 21:30 UTC
Viento 2 kt del norte-noroeste
Temperatura 7°C
Humedad 93%
Presión 1016 hPa
Visibilidad: 3500 m
neblina

METAR: LECH 222130Z AUTO 34002KT 3500 BR NSC 07/06 Q1016

Hora: 22:53 (21:53 UTC)


TAF: falta

Observaciones y pronósticos meteorológicos de más de 4000 aeropuertos (mensajes METAR y TAF).

Los puntos amarillos y rojos representan las estaciones disponibles.

Ponga el ratón en el punto deseado para ver el nombre de la estación.

Haga clic para ver las observaciones y los pronósticos meteorológicos.

Para cambiar el mapa : haga clic en los botones verdes con una cruz de color negro para hacer un zoom, en el botón verde con un guión para alejar o en las flechas verdes para mapas adyacentes.


METAR-TAF: